Time,TemperatureF,DewpointF,PressureIn,WindDirection,WindDirectionDegrees,WindSpeedMPH,WindSpeedGustMPH,Humidity,HourlyPrecipIn,Conditions,Clouds,dailyrainin,SoftwareType,DateUTC
2013-08-08 00:02:00,75.2,64.8,-100.00,NE,45,0.0,2.0,70,0.00,,,0.00,meteohub,2013-08-07 21:02:00,
2013-08-08 00:07:00,75.2,65.1,-100.00,NE,45,0.0,3.0,71,0.00,,,0.00,meteohub,2013-08-07 21:07:00,
2013-08-08 00:12:00,75.2,64.8,-100.00,NE,45,0.0,3.0,70,0.00,,,0.00,meteohub,2013-08-07 21:12:00,
2013-08-08 00:17:00,75.2,64.8,-100.00,NE,45,0.0,3.0,70,0.00,,,0.00,meteohub,2013-08-07 21:17:00,
2013-08-08 00:23:00,75.2,65.1,-100.00,ENE,68,2.0,3.0,71,0.00,,,0.00,meteohub,2013-08-07 21:23:00,
2013-08-08 00:28:00,75.2,65.1,-100.00,NE,45,2.0,4.0,71,0.00,,,0.00,meteohub,2013-08-07 21:28:00,
2013-08-08 00:33:00,75.2,65.1,-100.00,NE,45,1.0,4.0,71,0.00,,,0.00,meteohub,2013-08-07 21:33:00,
2013-08-08 00:38:00,75.2,65.5,-100.00,North,0,3.0,4.0,72,0.00,,,0.00,meteohub,2013-08-07 21:38:00,
2013-08-08 00:43:00,75.2,65.5,-100.00,NE,45,0.0,4.0,72,0.00,,,0.00,meteohub,2013-08-07 21:43:00,
2013-08-08 00:48:00,75.2,65.5,-100.00,East,90,3.0,4.0,72,0.00,,,0.00,meteohub,2013-08-07 21:48:00,
2013-08-08 00:53:00,75.4,66.6,-100.00,NE,45,3.0,3.0,74,0.00,,,0.00,meteohub,2013-08-07 21:53:00,
2013-08-08 00:58:00,75.7,66.4,-100.00,East,90,1.0,3.0,73,0.00,,,0.00,meteohub,2013-08-07 21:58:00,
2013-08-08 01:03:00,75.9,66.6,-100.00,North,0,3.0,3.0,73,0.00,,,0.00,meteohub,2013-08-07 22:03:00,
2013-08-08 01:08:00,76.3,66.9,-100.00,North,0,2.0,3.0,73,0.00,,,0.00,meteohub,2013-08-07 22:08:00,
2013-08-08 01:13:00,76.3,66.2,-100.00,North,0,3.0,3.0,71,0.00,,,0.00,meteohub,2013-08-07 22:13:00,
2013-08-08 01:18:00,76.5,66.0,-100.00,NE,45,0.0,5.0,70,0.00,,,0.00,meteohub,2013-08-07 22:18:00,
2013-08-08 01:23:00,76.5,66.4,-100.00,East,90,2.0,5.0,71,0.00,,,0.00,meteohub,2013-08-07 22:23:00,
2013-08-08 01:29:00,76.6,66.6,-100.00,NE,45,2.0,5.0,71,0.00,,,0.00,meteohub,2013-08-07 22:29:00,
2013-08-08 01:34:00,76.6,66.2,-100.00,NW,315,2.0,3.0,70,0.00,,,0.00,meteohub,2013-08-07 22:34:00,
2013-08-08 01:39:00,77.0,66.0,-100.00,NE,45,0.0,3.0,69,0.00,,,0.00,meteohub,2013-08-07 22:39:00,
2013-08-08 01:44:00,77.5,66.6,-100.00,North,0,0.0,3.0,69,0.00,,,0.00,meteohub,2013-08-07 22:44:00,
2013-08-08 01:49:00,77.9,66.6,-100.00,WNW,292,0.0,3.0,68,0.00,,,0.00,meteohub,2013-08-07 22:49:00,
2013-08-08 01:54:00,78.3,66.4,-100.00,West,270,2.0,3.0,67,0.00,,,0.00,meteohub,2013-08-07 22:54:00,
2013-08-08 01:59:00,78.1,65.8,-100.00,NW,315,3.0,3.0,66,0.00,,,0.00,meteohub,2013-08-07 22:59:00,
2013-08-08 02:04:00,77.7,64.6,-100.00,SW,225,2.0,3.0,64,0.00,,,0.00,meteohub,2013-08-07 23:04:00,
2013-08-08 02:09:00,78.3,65.1,-100.00,West,270,0.0,3.0,64,0.00,,,0.00,meteohub,2013-08-07 23:09:00,
2013-08-08 02:14:00,78.3,65.1,-100.00,NW,315,0.0,3.0,64,0.00,,,0.00,meteohub,2013-08-07 23:14:00,
2013-08-08 02:19:00,77.5,63.9,-100.00,WNW,292,0.0,3.0,63,0.00,,,0.00,meteohub,2013-08-07 23:19:00,
2013-08-08 02:24:00,76.8,63.7,-100.00,WNW,292,0.0,3.0,64,0.00,,,0.00,meteohub,2013-08-07 23:24:00,
2013-08-08 02:29:00,76.1,63.0,-100.00,WNW,292,0.0,3.0,64,0.00,,,0.00,meteohub,2013-08-07 23:29:00,
2013-08-08 02:35:00,75.6,63.0,-100.00,WNW,292,0.0,3.0,65,0.00,,,0.00,meteohub,2013-08-07 23:35:00,
2013-08-08 02:40:00,75.0,63.3,-100.00,NE,45,1.0,1.0,67,0.00,,,0.00,meteohub,2013-08-07 23:40:00,
2013-08-08 02:45:00,74.7,63.3,-100.00,NE,45,1.0,2.0,68,0.00,,,0.00,meteohub,2013-08-07 23:45:00,
2013-08-08 02:50:00,74.3,63.9,-100.00,NE,45,0.0,2.0,70,0.00,,,0.00,meteohub,2013-08-07 23:50:00,
2013-08-08 02:55:00,74.1,63.7,-100.00,NE,45,0.0,2.0,70,0.00,,,0.00,meteohub,2013-08-07 23:55:00,
2013-08-08 03:00:00,73.8,63.7,-100.00,North,0,0.0,3.0,71,0.00,,,0.00,meteohub,2013-08-08 00:00:00,
2013-08-08 03:05:00,73.6,64.4,-100.00,NNE,22,0.0,3.0,73,0.00,,,0.00,meteohub,2013-08-08 00:05:00,
2013-08-08 03:10:00,73.4,64.6,-100.00,NE,45,0.0,2.0,74,0.00,,,0.00,meteohub,2013-08-08 00:10:00,
2013-08-08 03:15:00,73.4,64.9,-100.00,NE,45,1.0,3.0,75,0.00,,,0.00,meteohub,2013-08-08 00:15:00,
2013-08-08 03:20:00,73.2,65.1,-100.00,North,0,0.0,3.0,76,0.00,,,0.00,meteohub,2013-08-08 00:20:00,
2013-08-08 03:25:00,73.2,65.7,-100.00,NE,45,1.0,2.0,77,0.00,,,0.00,meteohub,2013-08-08 00:25:00,
2013-08-08 03:30:00,73.0,65.8,-100.00,NE,45,3.0,3.0,78,0.00,,,0.00,meteohub,2013-08-08 00:30:00,
2013-08-08 03:36:00,73.0,65.8,-100.00,NE,45,2.0,3.0,78,0.00,,,0.00,meteohub,2013-08-08 00:36:00,
2013-08-08 03:41:00,73.0,66.2,-100.00,NE,45,0.0,3.0,79,0.00,,,0.00,meteohub,2013-08-08 00:41:00,
2013-08-08 03:46:00,72.9,66.0,-100.00,NNE,22,2.0,3.0,79,0.00,,,0.00,meteohub,2013-08-08 00:46:00,
2013-08-08 03:51:00,72.9,66.0,-100.00,NE,45,1.0,4.0,79,0.00,,,0.00,meteohub,2013-08-08 00:51:00,
2013-08-08 03:56:00,72.9,66.0,-100.00,NE,45,1.0,4.0,79,0.00,,,0.00,meteohub,2013-08-08 00:56:00,
2013-08-08 04:01:00,72.9,66.0,-100.00,NE,45,2.0,3.0,79,0.00,,,0.00,meteohub,2013-08-08 01:01:00,
2013-08-08 04:06:00,72.9,66.4,-100.00,North,0,1.0,4.0,80,0.00,,,0.00,meteohub,2013-08-08 01:06:00,
2013-08-08 04:11:00,72.9,66.4,-100.00,NE,45,3.0,4.0,80,0.00,,,0.00,meteohub,2013-08-08 01:11:00,
2013-08-08 04:16:00,73.0,66.6,-100.00,East,90,3.0,3.0,80,0.00,,,0.00,meteohub,2013-08-08 01:16:00,
2013-08-08 04:21:00,73.0,66.6,-100.00,NE,45,3.0,3.0,80,0.00,,,0.00,meteohub,2013-08-08 01:21:00,
2013-08-08 04:26:00,73.0,66.6,-100.00,East,90,1.0,3.0,80,0.00,,,0.00,meteohub,2013-08-08 01:26:00,
2013-08-08 04:31:00,72.9,66.4,-100.00,North,0,0.0,3.0,80,0.00,,,0.00,meteohub,2013-08-08 01:31:00,
2013-08-08 04:36:00,72.9,66.4,-100.00,NE,45,3.0,3.0,80,0.00,,,0.00,meteohub,2013-08-08 01:36:00,
2013-08-08 04:42:00,72.9,66.4,-100.00,NE,45,2.0,4.0,80,0.00,,,0.00,meteohub,2013-08-08 01:42:00,
2013-08-08 04:47:00,72.9,66.4,-100.00,NE,45,3.0,4.0,80,0.00,,,0.00,meteohub,2013-08-08 01:47:00,
2013-08-08 04:52:00,72.9,66.4,-100.00,NE,45,0.0,4.0,80,0.00,,,0.00,meteohub,2013-08-08 01:52:00,
2013-08-08 04:57:00,72.9,66.4,-100.00,North,0,0.0,4.0,80,0.00,,,0.00,meteohub,2013-08-08 01:57:00,
2013-08-08 05:02:00,72.9,66.7,-100.00,NE,45,3.0,4.0,81,0.00,,,0.00,meteohub,2013-08-08 02:02:00,
2013-08-08 05:07:00,72.7,66.6,-100.00,North,0,1.0,4.0,81,0.00,,,0.00,meteohub,2013-08-08 02:07:00,
2013-08-08 05:12:00,72.7,66.2,-100.00,NNE,22,2.0,3.0,80,0.00,,,0.00,meteohub,2013-08-08 02:12:00,
2013-08-08 05:17:00,72.7,66.6,-100.00,NE,45,3.0,3.0,81,0.00,,,0.00,meteohub,2013-08-08 02:17:00,
2013-08-08 05:22:00,72.7,66.6,-100.00,NE,45,0.0,4.0,81,0.00,,,0.00,meteohub,2013-08-08 02:22:00,
2013-08-08 05:27:00,72.7,66.6,-100.00,NE,45,1.0,4.0,81,0.00,,,0.00,meteohub,2013-08-08 02:27:00,
2013-08-08 05:32:00,72.7,66.6,-100.00,NE,45,0.0,4.0,81,0.00,,,0.00,meteohub,2013-08-08 02:32:00,
2013-08-08 05:37:00,72.7,66.6,-100.00,NE,45,2.0,4.0,81,0.00,,,0.00,meteohub,2013-08-08 02:37:00,
2013-08-08 05:43:00,72.7,66.6,-100.00,East,90,1.0,4.0,81,0.00,,,0.00,meteohub,2013-08-08 02:43:00,
2013-08-08 05:48:00,72.7,66.6,-100.00,NE,45,0.0,5.0,81,0.00,,,0.00,meteohub,2013-08-08 02:48:00,
2013-08-08 05:53:00,72.9,66.7,-100.00,NE,45,2.0,5.0,81,0.00,,,0.00,meteohub,2013-08-08 02:53:00,
2013-08-08 05:58:00,72.7,66.6,-100.00,NE,45,2.0,5.0,81,0.00,,,0.00,meteohub,2013-08-08 02:58:00,
2013-08-08 06:03:00,72.9,66.7,-100.00,North,0,3.0,4.0,81,0.00,,,0.00,meteohub,2013-08-08 03:03:00,
2013-08-08 06:08:00,72.7,66.6,-100.00,NE,45,1.0,4.0,81,0.00,,,0.00,meteohub,2013-08-08 03:08:00,
2013-08-08 06:13:00,72.7,66.6,-100.00,NE,45,1.0,4.0,81,0.00,,,0.00,meteohub,2013-08-08 03:13:00,
2013-08-08 06:18:00,72.7,66.6,-100.00,East,90,3.0,4.0,81,0.00,,,0.00,meteohub,2013-08-08 03:18:00,
2013-08-08 06:23:00,72.7,66.6,-100.00,NE,45,1.0,4.0,81,0.00,,,0.00,meteohub,2013-08-08 03:23:00,
2013-08-08 06:28:00,72.7,66.6,-100.00,North,-999,-999.0,4.0,81,0.00,,,0.00,meteohub,2013-08-08 03:28:00,
2013-08-08 06:33:00,72.7,66.6,-100.00,NE,45,0.0,4.0,81,0.00,,,0.00,meteohub,2013-08-08 03:33:00,
2013-08-08 06:38:00,72.7,66.6,-100.00,NE,45,0.0,4.0,81,0.00,,,0.00,meteohub,2013-08-08 03:38:00,
2013-08-08 06:44:00,72.9,66.7,-100.00,East,90,2.0,4.0,81,0.00,,,0.00,meteohub,2013-08-08 03:44:00,
2013-08-08 06:49:00,72.9,66.7,-100.00,East,90,6.0,6.0,81,0.00,,,0.00,meteohub,2013-08-08 03:49:00,
2013-08-08 06:54:00,72.9,66.7,-100.00,NNE,22,1.0,6.0,81,0.00,,,0.00,meteohub,2013-08-08 03:54:00,
2013-08-08 06:59:00,72.9,66.7,-100.00,NE,45,1.0,6.0,81,0.00,,,0.00,meteohub,2013-08-08 03:59:00,
2013-08-08 07:01:00,72.9,66.7,-100.00,North,0,2.0,6.0,81,0.00,,,0.00,meteohub,2013-08-08 04:01:00,
2013-08-08 07:02:00,72.9,66.7,-100.00,East,90,3.0,6.0,81,0.00,,,0.00,meteohub,2013-08-08 04:02:00,
2013-08-08 07:03:00,72.9,66.7,-100.00,NE,45,3.0,6.0,81,0.00,,,0.00,meteohub,2013-08-08 04:03:00,
2013-08-08 07:08:00,73.0,66.9,-100.00,North,0,3.0,4.0,81,0.00,,,0.00,meteohub,2013-08-08 04:08:00,
2013-08-08 07:13:00,73.0,66.9,-100.00,North,0,1.0,4.0,81,0.00,,,0.00,meteohub,2013-08-08 04:13:00,
2013-08-08 07:18:00,73.2,66.7,-100.00,NE,45,3.0,4.0,80,0.00,,,0.00,meteohub,2013-08-08 04:18:00,
2013-08-08 07:23:00,73.2,66.7,-100.00,NE,45,1.0,4.0,80,0.00,,,0.00,meteohub,2013-08-08 04:23:00,
2013-08-08 07:28:00,73.4,66.9,-100.00,NE,45,2.0,4.0,80,0.00,,,0.00,meteohub,2013-08-08 04:28:00,
2013-08-08 07:33:00,73.6,66.7,-100.00,NE,45,2.0,4.0,79,0.00,,,0.00,meteohub,2013-08-08 04:33:00,
2013-08-08 07:38:00,73.6,66.4,-100.00,NE,45,2.0,4.0,78,0.00,,,0.00,meteohub,2013-08-08 04:38:00,
2013-08-08 07:43:00,73.8,66.4,-100.00,East,90,3.0,6.0,78,0.00,,,0.00,meteohub,2013-08-08 04:43:00,
2013-08-08 07:49:00,73.9,66.6,-100.00,NE,45,1.0,6.0,78,0.00,,,0.00,meteohub,2013-08-08 04:49:00,
2013-08-08 07:54:00,73.9,66.6,-100.00,NE,45,2.0,6.0,78,0.00,,,0.00,meteohub,2013-08-08 04:54:00,
2013-08-08 07:59:00,74.1,66.7,-100.00,NE,45,0.0,4.0,78,0.00,,,0.00,meteohub,2013-08-08 04:59:00,
2013-08-08 08:04:00,74.3,66.9,-100.00,East,90,3.0,3.0,78,0.00,,,0.00,meteohub,2013-08-08 05:04:00,
2013-08-08 08:09:00,74.3,66.6,-100.00,NE,45,5.0,5.0,77,0.00,,,0.00,meteohub,2013-08-08 05:09:00,
2013-08-08 08:14:00,74.5,66.7,-100.00,North,-999,-999.0,5.0,77,0.00,,,0.00,meteohub,2013-08-08 05:14:00,
2013-08-08 08:19:00,74.7,66.6,-100.00,North,-999,-999.0,5.0,76,0.00,,,0.00,meteohub,2013-08-08 05:19:00,
2013-08-08 08:24:00,74.7,66.6,-100.00,NE,45,5.0,5.0,76,0.00,,,0.00,meteohub,2013-08-08 05:24:00,
2013-08-08 08:29:00,75.0,66.6,-100.00,North,0,2.0,2.0,75,0.00,,,0.00,meteohub,2013-08-08 05:29:00,
2013-08-08 08:34:00,75.2,66.4,-100.00,NE,45,1.0,5.0,74,0.00,,,0.00,meteohub,2013-08-08 05:34:00,
2013-08-08 08:39:00,75.2,66.0,-100.00,North,0,1.0,5.0,73,0.00,,,0.00,meteohub,2013-08-08 05:39:00,
2013-08-08 08:44:00,75.6,65.8,-100.00,North,0,0.0,4.0,72,0.00,,,0.00,meteohub,2013-08-08 05:44:00,
2013-08-08 08:49:00,75.7,65.3,-100.00,East,90,3.0,4.0,70,0.00,,,0.00,meteohub,2013-08-08 05:49:00,
2013-08-08 08:54:00,76.1,65.7,-100.00,NE,45,0.0,4.0,70,0.00,,,0.00,meteohub,2013-08-08 05:54:00,
2013-08-08 09:00:00,76.3,64.9,-100.00,East,90,3.0,4.0,68,0.00,,,0.00,meteohub,2013-08-08 06:00:00,
2013-08-08 09:05:00,76.8,64.6,-100.00,East,90,1.0,4.0,66,0.00,,,0.00,meteohub,2013-08-08 06:05:00,
2013-08-08 09:10:00,77.9,65.1,-100.00,NE,45,2.0,4.0,65,0.00,,,0.00,meteohub,2013-08-08 06:10:00,
2013-08-08 09:15:00,78.4,65.3,-100.00,NE,45,0.0,4.0,64,0.00,,,0.00,meteohub,2013-08-08 06:15:00,
2013-08-08 09:21:00,79.0,62.4,-100.00,NNE,22,2.0,4.0,57,0.00,,,0.00,meteohub,2013-08-08 06:21:00,
2013-08-08 09:26:00,79.9,63.9,-100.00,East,90,4.0,4.0,58,0.00,,,0.00,meteohub,2013-08-08 06:26:00,
2013-08-08 09:31:00,79.9,58.5,-100.00,North,0,2.0,5.0,48,0.00,,,0.00,meteohub,2013-08-08 06:31:00,
2013-08-08 09:36:00,80.1,58.1,-100.00,North,0,0.0,5.0,47,0.00,,,0.00,meteohub,2013-08-08 06:36:00,
2013-08-08 09:41:00,80.2,58.8,-100.00,NE,45,0.0,5.0,48,0.00,,,0.00,meteohub,2013-08-08 06:41:00,
2013-08-08 09:46:00,81.1,59.0,-100.00,NE,45,2.0,4.0,47,0.00,,,0.00,meteohub,2013-08-08 06:46:00,
2013-08-08 09:51:00,82.2,60.6,-100.00,NE,45,0.0,4.0,48,0.00,,,0.00,meteohub,2013-08-08 06:51:00,
2013-08-08 09:56:00,82.9,56.8,-100.00,East,90,2.0,4.0,41,0.00,,,0.00,meteohub,2013-08-08 06:56:00,
2013-08-08 10:01:00,82.2,54.1,-100.00,NE,45,7.0,7.0,38,0.00,,,0.00,meteohub,2013-08-08 07:01:00,
2013-08-08 10:06:00,82.9,55.4,-100.00,East,90,0.0,7.0,39,0.00,,,0.00,meteohub,2013-08-08 07:06:00,
2013-08-08 10:11:00,84.0,53.4,-100.00,NE,45,2.0,7.0,35,0.00,,,0.00,meteohub,2013-08-08 07:11:00,
2013-08-08 10:16:00,84.6,54.0,-100.00,East,90,1.0,7.0,35,0.00,,,0.00,meteohub,2013-08-08 07:16:00,
2013-08-08 10:22:00,85.1,55.2,-100.00,SW,225,1.0,7.0,36,0.00,,,0.00,meteohub,2013-08-08 07:22:00,
2013-08-08 10:27:00,85.6,53.2,-100.00,NE,45,0.0,7.0,33,0.00,,,0.00,meteohub,2013-08-08 07:27:00,
2013-08-08 10:32:00,86.0,52.7,-100.00,North,0,2.0,7.0,32,0.00,,,0.00,meteohub,2013-08-08 07:32:00,
2013-08-08 10:37:00,86.2,52.0,-100.00,SE,135,3.0,6.0,31,0.00,,,0.00,meteohub,2013-08-08 07:37:00,
2013-08-08 10:42:00,86.5,51.4,-100.00,North,0,2.0,6.0,30,0.00,,,0.00,meteohub,2013-08-08 07:42:00,
2013-08-08 10:47:00,86.0,50.0,-100.00,NE,45,5.0,5.0,29,0.00,,,0.00,meteohub,2013-08-08 07:47:00,
2013-08-08 10:52:00,85.6,51.6,-100.00,NE,45,2.0,5.0,31,0.00,,,0.00,meteohub,2013-08-08 07:52:00,
2013-08-08 10:57:00,85.3,51.3,-100.00,NE,45,4.0,6.0,31,0.00,,,0.00,meteohub,2013-08-08 07:57:00,
2013-08-08 11:02:00,84.7,50.7,-100.00,NE,45,1.0,6.0,31,0.00,,,0.00,meteohub,2013-08-08 08:02:00,
2013-08-08 11:07:00,83.8,50.0,-100.00,SE,135,3.0,6.0,31,0.00,,,0.00,meteohub,2013-08-08 08:07:00,
2013-08-08 11:12:00,83.1,50.2,-100.00,North,0,3.0,7.0,32,0.00,,,0.00,meteohub,2013-08-08 08:12:00,
2013-08-08 11:18:00,82.9,50.9,-100.00,North,0,1.0,7.0,33,0.00,,,0.00,meteohub,2013-08-08 08:18:00,
2013-08-08 11:23:00,82.4,50.4,-100.00,East,90,6.0,7.0,33,0.00,,,0.00,meteohub,2013-08-08 08:23:00,
2013-08-08 11:28:00,82.2,51.8,-100.00,NE,45,6.0,6.0,35,0.00,,,0.00,meteohub,2013-08-08 08:28:00,
2013-08-08 11:33:00,82.2,51.8,-100.00,NE,45,0.0,6.0,35,0.00,,,0.00,meteohub,2013-08-08 08:33:00,
2013-08-08 11:38:00,82.2,51.8,-100.00,NE,45,1.0,6.0,35,0.00,,,0.00,meteohub,2013-08-08 08:38:00,
2013-08-08 11:43:00,82.2,51.1,-100.00,East,90,3.0,6.0,34,0.00,,,0.00,meteohub,2013-08-08 08:43:00,
2013-08-08 11:48:00,82.2,51.8,-100.00,East,90,2.0,6.0,35,0.00,,,0.00,meteohub,2013-08-08 08:48:00,
2013-08-08 11:53:00,82.4,52.0,-100.00,NE,45,4.0,6.0,35,0.00,,,0.00,meteohub,2013-08-08 08:53:00,
2013-08-08 11:58:00,82.4,50.4,-100.00,East,90,3.0,5.0,33,0.00,,,0.00,meteohub,2013-08-08 08:58:00,
2013-08-08 12:03:00,82.6,52.2,-100.00,NE,45,0.0,6.0,35,0.00,,,0.00,meteohub,2013-08-08 09:03:00,
2013-08-08 12:08:00,82.4,52.0,-100.00,East,90,1.0,6.0,35,0.00,,,0.00,meteohub,2013-08-08 09:08:00,
2013-08-08 12:13:00,82.8,52.3,-100.00,East,90,4.0,6.0,35,0.00,,,0.00,meteohub,2013-08-08 09:13:00,
2013-08-08 12:18:00,82.8,52.3,-100.00,NE,45,0.0,6.0,35,0.00,,,0.00,meteohub,2013-08-08 09:18:00,
2013-08-08 12:23:00,82.6,50.5,-100.00,North,0,4.0,8.0,33,0.00,,,0.00,meteohub,2013-08-08 09:23:00,
2013-08-08 12:29:00,82.6,51.4,-100.00,North,0,2.0,8.0,34,0.00,,,0.00,meteohub,2013-08-08 09:29:00,
2013-08-08 12:34:00,82.6,52.2,-100.00,NE,45,2.0,8.0,35,0.00,,,0.00,meteohub,2013-08-08 09:34:00,
2013-08-08 12:39:00,82.6,52.2,-100.00,North,0,2.0,6.0,35,0.00,,,0.00,meteohub,2013-08-08 09:39:00,
2013-08-08 12:44:00,82.6,52.2,-100.00,North,0,0.0,8.0,35,0.00,,,0.00,meteohub,2013-08-08 09:44:00,
2013-08-08 12:49:00,82.8,52.3,-100.00,NE,45,4.0,8.0,35,0.00,,,0.00,meteohub,2013-08-08 09:49:00,
2013-08-08 12:54:00,82.6,51.4,-100.00,NE,45,2.0,8.0,34,0.00,,,0.00,meteohub,2013-08-08 09:54:00,
2013-08-08 12:59:00,82.6,52.2,-100.00,NE,45,1.0,6.0,35,0.00,,,0.00,meteohub,2013-08-08 09:59:00,
2013-08-08 13:04:00,82.6,51.4,-100.00,NE,45,4.0,6.0,34,0.00,,,0.00,meteohub,2013-08-08 10:04:00,
2013-08-08 13:09:00,82.6,51.4,-100.00,NNE,22,2.0,8.0,34,0.00,,,0.00,meteohub,2013-08-08 10:09:00,
2013-08-08 13:14:00,82.6,51.4,-100.00,East,90,4.0,8.0,34,0.00,,,0.00,meteohub,2013-08-08 10:14:00,
2013-08-08 13:19:00,82.4,50.4,-100.00,NE,45,5.0,8.0,33,0.00,,,0.00,meteohub,2013-08-08 10:19:00,
2013-08-08 13:24:00,82.2,51.1,-100.00,NE,45,7.0,8.0,34,0.00,,,0.00,meteohub,2013-08-08 10:24:00,
2013-08-08 13:30:00,82.2,51.1,-100.00,NE,45,4.0,9.0,34,0.00,,,0.00,meteohub,2013-08-08 10:30:00,
2013-08-08 13:35:00,82.4,50.4,-100.00,NNE,22,3.0,9.0,33,0.00,,,0.00,meteohub,2013-08-08 10:35:00,
2013-08-08 13:40:00,82.4,49.6,-100.00,NW,315,1.0,6.0,32,0.00,,,0.00,meteohub,2013-08-08 10:40:00,
2013-08-08 13:45:00,82.6,49.8,-100.00,North,0,2.0,6.0,32,0.00,,,0.00,meteohub,2013-08-08 10:45:00,
2013-08-08 13:50:00,82.6,49.8,-100.00,East,90,5.0,6.0,32,0.00,,,0.00,meteohub,2013-08-08 10:50:00,
2013-08-08 13:55:00,82.8,49.8,-100.00,NE,45,3.0,10.0,32,0.00,,,0.00,meteohub,2013-08-08 10:55:00,
2013-08-08 14:01:00,82.8,49.8,-100.00,NE,45,1.0,10.0,32,0.00,,,0.00,meteohub,2013-08-08 11:01:00,
2013-08-08 14:06:00,82.8,49.1,-100.00,NE,45,4.0,10.0,31,0.00,,,0.00,meteohub,2013-08-08 11:06:00,
2013-08-08 14:11:00,82.9,50.0,-100.00,NE,45,3.0,10.0,32,0.00,,,0.00,meteohub,2013-08-08 11:11:00,
2013-08-08 14:16:00,82.9,49.3,-100.00,East,90,2.0,9.0,31,0.00,,,0.00,meteohub,2013-08-08 11:16:00,
2013-08-08 14:21:00,83.1,49.3,-100.00,SE,135,2.0,9.0,31,0.00,,,0.00,meteohub,2013-08-08 11:21:00,
2013-08-08 14:26:00,83.1,49.3,-100.00,NE,45,5.0,6.0,31,0.00,,,0.00,meteohub,2013-08-08 11:26:00,
2013-08-08 14:31:00,83.5,49.6,-100.00,East,90,4.0,6.0,31,0.00,,,0.00,meteohub,2013-08-08 11:31:00,
2013-08-08 14:36:00,83.5,48.7,-100.00,NE,45,3.0,7.0,30,0.00,,,0.00,meteohub,2013-08-08 11:36:00,
2013-08-08 14:41:00,83.5,49.6,-100.00,NE,45,4.0,7.0,31,0.00,,,0.00,meteohub,2013-08-08 11:41:00,
2013-08-08 14:46:00,83.7,48.9,-100.00,North,0,1.0,7.0,30,0.00,,,0.00,meteohub,2013-08-08 11:46:00,
2013-08-08 14:51:00,83.8,48.2,-100.00,NE,45,3.0,7.0,29,0.00,,,0.00,meteohub,2013-08-08 11:51:00,
2013-08-08 14:57:00,84.0,48.4,-100.00,North,0,3.0,6.0,29,0.00,,,0.00,meteohub,2013-08-08 11:57:00,
2013-08-08 15:02:00,84.0,48.4,-100.00,North,0,2.0,9.0,29,0.00,,,0.00,meteohub,2013-08-08 12:02:00,
2013-08-08 15:07:00,84.0,48.4,-100.00,North,0,3.0,9.0,29,0.00,,,0.00,meteohub,2013-08-08 12:07:00,
2013-08-08 15:12:00,84.7,48.9,-100.00,North,0,2.0,9.0,29,0.00,,,0.00,meteohub,2013-08-08 12:12:00,
2013-08-08 15:17:00,85.1,49.3,-100.00,North,0,2.0,8.0,29,0.00,,,0.00,meteohub,2013-08-08 12:17:00,
2013-08-08 15:22:00,85.3,49.5,-100.00,NW,315,3.0,11.0,29,0.00,,,0.00,meteohub,2013-08-08 12:22:00,
2013-08-08 15:27:00,85.6,49.8,-100.00,East,90,5.0,11.0,29,0.00,,,0.00,meteohub,2013-08-08 12:27:00,
2013-08-08 15:32:00,86.2,50.2,-100.00,East,90,1.0,12.0,29,0.00,,,0.00,meteohub,2013-08-08 12:32:00,
2013-08-08 15:37:00,87.1,50.9,-100.00,NE,45,3.0,12.0,29,0.00,,,0.00,meteohub,2013-08-08 12:37:00,
2013-08-08 15:42:00,88.0,48.7,-100.00,NE,45,3.0,12.0,26,0.00,,,0.00,meteohub,2013-08-08 12:42:00,
2013-08-08 15:47:00,88.5,51.3,-100.00,NE,45,1.0,11.0,28,0.00,,,0.00,meteohub,2013-08-08 12:47:00,
2013-08-08 15:53:00,88.9,50.5,-100.00,NE,45,4.0,7.0,27,0.00,,,0.00,meteohub,2013-08-08 12:53:00,
2013-08-08 15:58:00,88.9,50.5,-100.00,East,90,5.0,13.0,27,0.00,,,0.00,meteohub,2013-08-08 12:58:00,
2013-08-08 16:03:00,88.7,48.4,-100.00,North,0,3.0,13.0,25,0.00,,,0.00,meteohub,2013-08-08 13:03:00,
2013-08-08 16:08:00,89.1,46.4,-100.00,North,0,3.0,13.0,23,0.00,,,0.00,meteohub,2013-08-08 13:08:00,
2013-08-08 16:13:00,89.2,46.6,-100.00,NNW,338,3.0,9.0,23,0.00,,,0.00,meteohub,2013-08-08 13:13:00,
2013-08-08 16:18:00,90.5,48.7,-100.00,NE,45,1.0,9.0,24,0.00,,,0.00,meteohub,2013-08-08 13:18:00,
2013-08-08 16:23:00,90.3,45.1,-100.00,NE,45,3.0,9.0,21,0.00,,,0.00,meteohub,2013-08-08 13:23:00,
2013-08-08 16:28:00,90.5,43.9,-100.00,North,0,2.0,9.0,20,0.00,,,0.00,meteohub,2013-08-08 13:28:00,
2013-08-08 16:33:00,90.5,45.3,-100.00,East,90,5.0,7.0,21,0.00,,,0.00,meteohub,2013-08-08 13:33:00,
2013-08-08 16:38:00,91.4,44.8,-100.00,East,90,4.0,7.0,20,0.00,,,0.00,meteohub,2013-08-08 13:38:00,
2013-08-08 16:43:00,90.5,43.9,-100.00,West,270,5.0,7.0,20,0.00,,,0.00,meteohub,2013-08-08 13:43:00,
2013-08-08 16:48:00,89.8,45.9,-100.00,East,90,6.0,6.0,22,0.00,,,0.00,meteohub,2013-08-08 13:48:00,
2013-08-08 16:54:00,90.1,46.2,-100.00,North,0,1.0,9.0,22,0.00,,,0.00,meteohub,2013-08-08 13:54:00,
2013-08-08 16:59:00,90.3,46.4,-100.00,NE,45,3.0,9.0,22,0.00,,,0.00,meteohub,2013-08-08 13:59:00,
2013-08-08 17:04:00,89.4,46.8,-100.00,NE,45,2.0,9.0,23,0.00,,,0.00,meteohub,2013-08-08 14:04:00,
2013-08-08 17:09:00,89.1,47.7,-100.00,NNE,22,3.0,6.0,24,0.00,,,0.00,meteohub,2013-08-08 14:09:00,
2013-08-08 17:14:00,89.1,46.4,-100.00,NE,45,6.0,6.0,23,0.00,,,0.00,meteohub,2013-08-08 14:14:00,
2013-08-08 17:19:00,88.9,47.5,-100.00,NE,45,3.0,7.0,24,0.00,,,0.00,meteohub,2013-08-08 14:19:00,
2013-08-08 17:24:00,88.9,47.5,-100.00,North,0,2.0,7.0,24,0.00,,,0.00,meteohub,2013-08-08 14:24:00,
2013-08-08 17:29:00,88.9,47.5,-100.00,North,0,2.0,6.0,24,0.00,,,0.00,meteohub,2013-08-08 14:29:00,
2013-08-08 17:34:00,88.7,47.3,-100.00,NNW,338,3.0,6.0,24,0.00,,,0.00,meteohub,2013-08-08 14:34:00,
2013-08-08 17:39:00,88.2,47.8,-100.00,NE,45,1.0,6.0,25,0.00,,,0.00,meteohub,2013-08-08 14:39:00,
2013-08-08 17:44:00,88.0,47.8,-100.00,NE,45,2.0,6.0,25,0.00,,,0.00,meteohub,2013-08-08 14:44:00,
2013-08-08 17:49:00,86.7,48.7,-100.00,East,90,4.0,6.0,27,0.00,,,0.00,meteohub,2013-08-08 14:49:00,
2013-08-08 17:55:00,86.5,49.6,-100.00,East,90,11.0,11.0,28,0.00,,,0.00,meteohub,2013-08-08 14:55:00,
2013-08-08 18:00:00,85.6,49.8,-100.00,North,0,2.0,9.0,29,0.00,,,0.00,meteohub,2013-08-08 15:00:00,
2013-08-08 18:05:00,85.3,50.4,-100.00,North,0,2.0,11.0,30,0.00,,,0.00,meteohub,2013-08-08 15:05:00,
2013-08-08 18:10:00,84.6,50.5,-100.00,North,0,4.0,9.0,31,0.00,,,0.00,meteohub,2013-08-08 15:10:00,
2013-08-08 18:15:00,84.4,50.4,-100.00,NE,45,3.0,9.0,31,0.00,,,0.00,meteohub,2013-08-08 15:15:00,
2013-08-08 18:20:00,83.8,50.9,-100.00,North,0,3.0,9.0,32,0.00,,,0.00,meteohub,2013-08-08 15:20:00,
2013-08-08 18:25:00,83.5,51.4,-100.00,East,90,4.0,9.0,33,0.00,,,0.00,meteohub,2013-08-08 15:25:00,
2013-08-08 18:30:00,83.3,51.3,-100.00,NE,45,3.0,9.0,33,0.00,,,0.00,meteohub,2013-08-08 15:30:00,
2013-08-08 18:35:00,83.5,52.2,-100.00,SW,225,2.0,8.0,34,0.00,,,0.00,meteohub,2013-08-08 15:35:00,
2013-08-08 18:40:00,83.1,51.8,-100.00,North,0,2.0,8.0,34,0.00,,,0.00,meteohub,2013-08-08 15:40:00,
2013-08-08 18:45:00,82.8,53.1,-100.00,NE,45,4.0,8.0,36,0.00,,,0.00,meteohub,2013-08-08 15:45:00,
2013-08-08 18:50:00,82.9,53.2,-100.00,SE,135,3.0,8.0,36,0.00,,,0.00,meteohub,2013-08-08 15:50:00,
2013-08-08 18:56:00,82.6,55.0,-100.00,NE,45,4.0,8.0,39,0.00,,,0.00,meteohub,2013-08-08 15:56:00,
2013-08-08 19:01:00,82.4,55.6,-100.00,NE,45,4.0,9.0,40,0.00,,,0.00,meteohub,2013-08-08 16:01:00,
2013-08-08 19:06:00,82.2,56.8,-100.00,East,90,3.0,9.0,42,0.00,,,0.00,meteohub,2013-08-08 16:06:00,
2013-08-08 19:11:00,82.0,56.7,-100.00,NNW,338,2.0,9.0,42,0.00,,,0.00,meteohub,2013-08-08 16:11:00,
2013-08-08 19:16:00,81.9,56.5,-100.00,North,0,1.0,9.0,42,0.00,,,0.00,meteohub,2013-08-08 16:16:00,
2013-08-08 19:21:00,81.9,56.5,-100.00,NE,45,4.0,9.0,42,0.00,,,0.00,meteohub,2013-08-08 16:21:00,
2013-08-08 19:26:00,81.5,56.8,-100.00,NE,45,2.0,9.0,43,0.00,,,0.00,meteohub,2013-08-08 16:26:00,
2013-08-08 19:31:00,81.1,56.5,-100.00,NNE,22,0.0,5.0,43,0.00,,,0.00,meteohub,2013-08-08 16:31:00,
2013-08-08 19:36:00,80.8,56.8,-100.00,NE,45,6.0,6.0,44,0.00,,,0.00,meteohub,2013-08-08 16:36:00,
2013-08-08 19:41:00,80.8,57.4,-100.00,NE,45,4.0,6.0,45,0.00,,,0.00,meteohub,2013-08-08 16:41:00,
2013-08-08 19:46:00,80.2,57.6,-100.00,NNW,338,4.0,6.0,46,0.00,,,0.00,meteohub,2013-08-08 16:46:00,
2013-08-08 19:51:00,80.1,56.8,-100.00,East,90,3.0,7.0,45,0.00,,,0.00,meteohub,2013-08-08 16:51:00,
2013-08-08 19:56:00,79.9,57.2,-100.00,East,90,6.0,8.0,46,0.00,,,0.00,meteohub,2013-08-08 16:56:00,
2013-08-08 20:02:00,80.1,57.4,-100.00,NE,45,1.0,8.0,46,0.00,,,0.00,meteohub,2013-08-08 17:02:00,
2013-08-08 20:07:00,79.5,56.8,-100.00,NNW,338,2.0,7.0,46,0.00,,,0.00,meteohub,2013-08-08 17:07:00,
2013-08-08 20:12:00,79.2,58.3,-100.00,NE,45,3.0,6.0,49,0.00,,,0.00,meteohub,2013-08-08 17:12:00,
2013-08-08 20:17:00,79.0,58.1,-100.00,NE,45,2.0,6.0,49,0.00,,,0.00,meteohub,2013-08-08 17:17:00,
2013-08-08 20:22:00,78.8,58.6,-100.00,NE,45,2.0,8.0,50,0.00,,,0.00,meteohub,2013-08-08 17:22:00,
2013-08-08 20:27:00,78.6,59.0,-100.00,NE,45,3.0,8.0,51,0.00,,,0.00,meteohub,2013-08-08 17:27:00,
2013-08-08 20:32:00,78.4,58.8,-100.00,NE,45,1.0,8.0,51,0.00,,,0.00,meteohub,2013-08-08 17:32:00,
2013-08-08 20:37:00,78.4,59.4,-100.00,NE,45,3.0,6.0,52,0.00,,,0.00,meteohub,2013-08-08 17:37:00,
2013-08-08 20:42:00,78.3,59.2,-100.00,NW,315,2.0,6.0,52,0.00,,,0.00,meteohub,2013-08-08 17:42:00,
2013-08-08 20:47:00,78.1,59.0,-100.00,NE,45,3.0,4.0,52,0.00,,,0.00,meteohub,2013-08-08 17:47:00,
2013-08-08 20:53:00,77.9,58.8,-100.00,NNE,22,2.0,6.0,52,0.00,,,0.00,meteohub,2013-08-08 17:53:00,
2013-08-08 20:58:00,77.9,59.4,-100.00,East,90,4.0,6.0,53,0.00,,,0.00,meteohub,2013-08-08 17:58:00,
2013-08-08 21:03:00,77.7,59.2,-100.00,NE,45,1.0,6.0,53,0.00,,,0.00,meteohub,2013-08-08 18:03:00,
2013-08-08 21:08:00,77.7,59.2,-100.00,NE,45,4.0,6.0,53,0.00,,,0.00,meteohub,2013-08-08 18:08:00,
2013-08-08 21:13:00,77.5,59.5,-100.00,NE,45,4.0,6.0,54,0.00,,,0.00,meteohub,2013-08-08 18:13:00,
2013-08-08 21:18:00,77.5,59.5,-100.00,NE,45,2.0,6.0,54,0.00,,,0.00,meteohub,2013-08-08 18:18:00,
2013-08-08 21:23:00,77.4,59.9,-100.00,East,90,3.0,6.0,55,0.00,,,0.00,meteohub,2013-08-08 18:23:00,
2013-08-08 21:28:00,77.2,60.3,-100.00,North,0,3.0,6.0,56,0.00,,,0.00,meteohub,2013-08-08 18:28:00,
2013-08-08 21:33:00,77.2,60.8,-100.00,NE,45,3.0,6.0,57,0.00,,,0.00,meteohub,2013-08-08 18:33:00,
2013-08-08 21:38:00,77.2,60.8,-100.00,NE,45,4.0,6.0,57,0.00,,,0.00,meteohub,2013-08-08 18:38:00,
2013-08-08 21:43:00,77.2,61.3,-100.00,NE,45,0.0,6.0,58,0.00,,,0.00,meteohub,2013-08-08 18:43:00,
2013-08-08 21:48:00,77.2,61.3,-100.00,NE,45,0.0,4.0,58,0.00,,,0.00,meteohub,2013-08-08 18:48:00,
2013-08-08 21:53:00,77.0,61.2,-100.00,NE,45,1.0,4.0,58,0.00,,,0.00,meteohub,2013-08-08 18:53:00,
2013-08-08 21:59:00,77.0,62.1,-100.00,NE,45,5.0,5.0,60,0.00,,,0.00,meteohub,2013-08-08 18:59:00,
2013-08-08 22:04:00,76.8,62.4,-100.00,NE,45,2.0,5.0,61,0.00,,,0.00,meteohub,2013-08-08 19:04:00,
2013-08-08 22:09:00,76.8,62.4,-100.00,NE,45,2.0,6.0,61,0.00,,,0.00,meteohub,2013-08-08 19:09:00,
2013-08-08 22:14:00,77.4,63.9,-100.00,NW,315,3.0,6.0,63,0.00,,,0.00,meteohub,2013-08-08 19:14:00,
2013-08-08 22:19:00,78.1,64.0,-100.00,NNW,338,3.0,6.0,62,0.00,,,0.00,meteohub,2013-08-08 19:19:00,
2013-08-08 22:24:00,78.3,63.3,-100.00,NE,45,0.0,4.0,60,0.00,,,0.00,meteohub,2013-08-08 19:24:00,
2013-08-08 22:29:00,78.3,62.8,-100.00,North,0,0.0,3.0,59,0.00,,,0.00,meteohub,2013-08-08 19:29:00,
2013-08-08 22:34:00,78.4,63.0,-100.00,East,90,1.0,4.0,59,0.00,,,0.00,meteohub,2013-08-08 19:34:00,
2013-08-08 22:39:00,78.8,63.7,-100.00,NW,315,1.0,4.0,60,0.00,,,0.00,meteohub,2013-08-08 19:39:00,
2013-08-08 22:44:00,78.8,63.7,-100.00,NW,315,2.0,4.0,60,0.00,,,0.00,meteohub,2013-08-08 19:44:00,
2013-08-08 22:49:00,78.8,63.3,-100.00,NE,45,1.0,4.0,59,0.00,,,0.00,meteohub,2013-08-08 19:49:00,
2013-08-08 22:55:00,78.8,62.8,-100.00,NE,45,1.0,3.0,58,0.00,,,0.00,meteohub,2013-08-08 19:55:00,
2013-08-08 23:00:00,79.2,62.6,-100.00,NE,45,0.0,3.0,57,0.00,,,0.00,meteohub,2013-08-08 20:00:00,
2013-08-08 23:05:00,79.3,62.8,-100.00,NE,45,0.0,3.0,57,0.00,,,0.00,meteohub,2013-08-08 20:05:00,
2013-08-08 23:10:00,80.2,64.0,-100.00,NW,315,0.0,3.0,58,0.00,,,0.00,meteohub,2013-08-08 20:10:00,
2013-08-08 23:15:00,80.1,63.5,-100.00,West,270,0.0,3.0,57,0.00,,,0.00,meteohub,2013-08-08 20:15:00,
2013-08-08 23:20:00,80.2,63.7,-100.00,West,270,3.0,3.0,57,0.00,,,0.00,meteohub,2013-08-08 20:20:00,
2013-08-08 23:25:00,79.9,62.8,-100.00,NW,315,2.0,3.0,56,0.00,,,0.00,meteohub,2013-08-08 20:25:00,
2013-08-08 23:30:00,79.5,61.3,-100.00,NE,45,2.0,3.0,54,0.00,,,0.00,meteohub,2013-08-08 20:30:00,
2013-08-08 23:35:00,78.6,61.5,-100.00,NE,45,2.0,3.0,56,0.00,,,0.00,meteohub,2013-08-08 20:35:00,
2013-08-08 23:40:00,77.9,61.5,-100.00,NE,45,1.0,3.0,57,0.00,,,0.00,meteohub,2013-08-08 20:40:00,
2013-08-08 23:45:00,77.4,61.3,-100.00,NE,45,0.0,3.0,58,0.00,,,0.00,meteohub,2013-08-08 20:45:00,
2013-08-08 23:51:00,77.2,61.7,-100.00,East,90,0.0,3.0,59,0.00,,,0.00,meteohub,2013-08-08 20:51:00,
2013-08-08 23:56:00,76.8,62.4,-100.00,NE,45,0.0,2.0,61,0.00,,,0.00,meteohub,2013-08-08 20:56:00,